Weather History for KBTV - October, 2012

Change the Weather History Date:

Tuesday, October 2, 2012

  Actual Average Record
Temperature  
Mean Temperature 58 °F 53 °F  
Max Temperature 64 °F 63 °F 82 °F (1950)
Min Temperature 52 °F 44 °F 29 °F (1960)
Degree Days  
Heating Degree Days 7 12  
Month to date heating degree days 16 23  
Since 1 July heating degree days 163 240  
Cooling Degree Days 0 0  
Month to date cooling degree days 0 0  
Year to date cooling degree days 746 489  
Growing Degree Days 8 (Base 50)    
Moisture  
Dew Point 53 °F    
Average Humidity 82    
Maximum Humidity 96    
Minimum Humidity 67    
Precipitation  
Precipitation 0.04 in 0.13 in 1.20 in (1929)
Month to date precipitation 0.38 0.25  
Year to date precipitation 26.74 27.96  
Snow  
Snow 0.00 in 0.00 in 0.20 in (1926)
Month to date snowfall 0.0 0.0  
Since 1 July snowfall 0.0 T  
Since 1 September snowfall 0.0 T  
Snow Depth 0.00 in    
Sea Level Pressure  
Sea Level Pressure 29.99 in    
Wind  
Wind Speed 3 mph (South)    
Max Wind Speed 13 mph    
Max Gust Speed 16 mph    
Visibility 10 miles    
Events Rain    
T = Trace of Precipitation, MM = Missing Value Source: NWS Daily Summary

Daily Weather History Graph

Daily Weather History Graph

Search for Another Location

Airport or City:

Trip Planner

Search our weather history database for the weather conditions in past years. The results will help you decide how hot, cold, wet, or windy it might be!

Date:

Astronomy

Oct. 02, 2012 Rise Set
Actual Time 6:52 AM EDT 6:30 PM EDT
Civil Twilight 6:23 AM EDT 6:59 PM EDT
Nautical Twilight 5:49 AM EDT 7:33 PM EDT
Astronomical Twilight 5:15 AM EDT 8:07 PM EDT
Moon 7:33 PM EDT (10/2) 9:24 AM EDT (10/2)
Length of Visible Light 12h 36m
Length of Day
11h 38m
Waning Gibbous, 94% of the Moon is Illuminated
Oct 2
Waning Gibbous
Oct 8
Last Quarter
Oct 15
New
Oct 21
First Quarter
Oct 29
Full

Hourly Weather History & Observations

Time (EDT) Temp. Dew Point Humidity Pressure Visibility Wind Dir Wind Speed Gust Speed Precip Events Conditions
12:54 AM 54.0 °F 51.1 °F 90% 29.92 in 10.0 mi ESE 3.5 mph - N/A   Partly Cloudy
1:54 AM 52.0 °F 50.0 °F 93% 29.92 in 9.0 mi Calm Calm - N/A   Clear
2:54 AM 52.0 °F 50.0 °F 93% 29.92 in 9.0 mi Calm Calm - N/A   Clear
3:54 AM 51.8 °F 50.0 °F 94% 29.92 in 10.0 mi Calm Calm - N/A   Clear
4:54 AM 55.0 °F 51.1 °F 86% 29.94 in 10.0 mi South 5.8 mph - N/A   Clear
5:54 AM 55.9 °F 51.1 °F 84% 29.96 in 10.0 mi South 3.5 mph - N/A   Clear
6:54 AM 55.0 °F 50.0 °F 83% 29.97 in 10.0 mi Calm Calm - N/A   Clear
7:54 AM 55.0 °F 51.1 °F 86% 30.00 in 10.0 mi Calm Calm - N/A   Partly Cloudy
8:54 AM 57.9 °F 52.0 °F 81% 30.01 in 10.0 mi South 6.9 mph - N/A   Mostly Cloudy
9:54 AM 61.0 °F 52.0 °F 72% 30.00 in 10.0 mi South 9.2 mph - N/A   Mostly Cloudy
10:54 AM 62.1 °F 53.1 °F 72% 30.01 in 10.0 mi SSW 6.9 mph - N/A   Mostly Cloudy
11:54 AM 62.1 °F 53.1 °F 72% 30.00 in 10.0 mi SSW 6.9 mph - 0.00 in   Mostly Cloudy
12:54 PM 62.1 °F 53.1 °F 72% 30.00 in 10.0 mi South 6.9 mph - N/A   Overcast
1:54 PM 63.0 °F 54.0 °F 72% 29.99 in 10.0 mi South 5.8 mph - N/A   Overcast
2:54 PM 64.0 °F 54.0 °F 70% 29.99 in 10.0 mi South 9.2 mph - N/A   Overcast
3:54 PM 63.0 °F 54.0 °F 72% 29.99 in 10.0 mi Calm Calm - 0.00 in Rain Light Rain
4:54 PM 62.1 °F 55.0 °F 78% 29.99 in 10.0 mi Calm Calm - 0.02 in   Overcast
5:54 PM 61.0 °F 55.9 °F 83% 30.00 in 10.0 mi East 3.5 mph - N/A   Mostly Cloudy
6:54 PM 61.0 °F 57.0 °F 87% 30.02 in 8.0 mi Calm Calm - 0.00 in Rain Light Rain
7:54 PM 59.0 °F 57.2 °F 94% 30.02 in 7.0 mi Calm Calm - N/A   Overcast
8:54 PM 59.0 °F 55.4 °F 88% 30.03 in 10.0 mi SSE 3.5 mph - N/A   Overcast
9:54 PM 59.0 °F 55.9 °F 90% 30.04 in 10.0 mi Calm Calm - N/A   Overcast
10:54 PM 59.0 °F 55.9 °F 90% 30.04 in 10.0 mi SE 3.5 mph - N/A   Overcast
11:54 PM 59.0 °F 55.9 °F 90% 30.05 in 10.0 mi Calm Calm - N/A   Overcast